EW7164 Weather Reports


Display with metric or nautical units.
time (UTC)temp
F
wind
direction
speed
MPH
gust
MPH
rain 1hr
in
rain 24hr
in
rain mn
in
humidity
%
barometer
mb
20200227015012 39 179 3.0 0.0 0.00 0.00 0.00 50 1.0
20200227014012 40 130 3.0 0.0 0.00 0.00 0.00 50 1.0
20200227013111 40 121 5.0 0.0 0.00 0.00 0.00 49 1.0
20200227012117 40 114 3.0 0.0 0.00 0.00 0.00 50 1.0
20200227011112 40 115 5.0 0.0 0.00 0.00 0.00 50 1.0
20200227010211 40 104 5.0 0.0 0.00 0.00 0.00 50 1.0
20200227005213 41 110 6.0 0.0 0.00 0.00 0.00 50 1.0
20200227004311 41 101 2.0 0.0 0.00 0.00 0.00 51 1.0
20200227003312 41 117 3.0 0.0 0.00 0.00 0.00 52 1.0
20200227002411 41 113 4.0 0.0 0.00 0.00 0.00 54 1.0
20200227001411 41 132 3.0 0.0 0.00 0.00 0.00 54 1.0
20200227000417 41 133 3.0 0.0 0.00 0.00 0.00 56 1.0
20200226235511 41 154 3.0 0.0 0.00 0.00 0.00 57 1.0
20200226234511 41 151 1.0 0.0 0.00 0.00 0.00 58 1.0
20200226233513 41 157 3.0 0.0 0.00 0.00 0.00 59 1.0
20200226232610 41 123 3.0 0.0 0.00 0.00 0.00 59 1.0
20200226231613 41 135 3.0 0.0 0.00 0.00 0.00 60 1.0
20200226230709 40 112 4.0 0.0 0.00 0.00 0.00 60 1.0
20200226225712 40 131 3.0 0.0 0.00 0.00 0.00 60 1.0
20200226224712 40 120 2.0 0.0 0.00 0.00 0.00 61 1.0
20200226223810 40 157 3.0 0.0 0.00 0.00 0.00 61 1.0
20200226222810 40 154 3.0 0.0 0.00 0.00 0.00 62 1.0
20200226221910 40 148 2.0 0.0 0.00 0.00 0.00 61 1.0
20200226220911 40 130 4.0 0.0 0.00 0.00 0.00 63 1.0
20200226220012 40 148 2.0 0.0 0.00 0.00 0.00 63 1.0
20200226215013 41 127 3.0 0.0 0.00 0.00 0.00 63 1.0
20200226214110 41 103 2.0 0.0 0.00 0.00 0.00 63 1.0
20200226213112 41 118 3.0 0.0 0.00 0.00 0.00 62 1.0
20200226212112 41 127 3.0 0.0 0.00 0.00 0.00 63 1.0
20200226211110 41 147 2.0 0.0 0.00 0.00 0.00 65 1.0
20200226210212 41 118 4.0 0.0 0.00 0.00 0.00 65 1.0
20200226205309 41 145 2.0 0.0 0.00 0.00 0.00 65 1.0
20200226204312 41 157 3.0 0.0 0.00 0.00 0.00 64 1.0
20200226203410 41 160 3.0 0.0 0.00 0.00 0.00 64 1.0
20200226202410 42 124 5.0 0.0 0.00 0.00 0.00 63 1.0
20200226201413 42 136 5.0 0.0 0.00 0.00 0.00 61 1.0
20200226200510 43 126 5.0 0.0 0.00 0.00 0.00 59 1.0
20200226195609 43 134 5.0 0.0 0.00 0.00 0.00 59 1.0
20200226194614 44 129 6.0 0.0 0.00 0.00 0.00 58 1.0
20200226193713 45 108 6.0 0.0 0.00 0.00 0.00 56 1.0
20200226192811 45 112 1.0 0.0 0.00 0.00 0.00 55 1.0
20200226191814 45 138 5.0 0.0 0.00 0.00 0.00 53 1.0
20200226190913 46 108 5.0 0.0 0.00 0.00 0.00 52 1.0
20200226190010 46 107 7.0 0.0 0.00 0.00 0.00 53 1.0
20200226185012 46 202 1.0 0.0 0.00 0.00 0.00 53 1.0
20200226184112 46 114 2.0 0.0 0.00 0.00 0.00 53 1.0
20200226183112 45 104 3.0 0.0 0.00 0.00 0.00 54 1.0
20200226182212 45 134 1.0 0.0 0.00 0.00 0.00 54 1.0
20200226181310 45 110 3.0 0.0 0.00 0.00 0.00 53 1.0
20200226180310 45 112 3.0 0.0 0.00 0.00 0.00 54 1.0
20200226175412 45 74 2.0 0.0 0.00 0.00 0.00 54 1.0
20200226174412 45 90 3.0 0.0 0.00 0.00 0.00 52 1.0
20200226173511 45 86 5.0 0.0 0.00 0.00 0.00 51 1.0
20200226172512 45 80 4.0 0.0 0.00 0.00 0.00 50 1.0
20200226171610 45 124 1.0 0.0 0.00 0.00 0.00 51 1.0
20200226170611 44 75 4.0 0.0 0.00 0.00 0.00 51 1.0
20200226165710 44 351 3.0 0.0 0.00 0.00 0.00 52 1.0
20200226164711 44 78 3.0 0.0 0.00 0.00 0.00 50 1.0
20200226163811 44 90 2.0 0.0 0.00 0.00 0.00 50 1.0
20200226162911 44 360 2.0 0.0 0.00 0.00 0.00 51 1.0
20200226161911 43 326 2.0 0.0 0.00 0.00 0.00 52 1.0
20200226161010 43 328 4.0 0.0 0.00 0.00 0.00 52 1.0
20200226160012 42 337 1.0 0.0 0.00 0.00 0.00 53 1.0
20200226155111 42 337 2.0 0.0 0.00 0.00 0.00 53 1.0
20200226154211 42 349 4.0 0.0 0.00 0.00 0.00 54 1.0
20200226153312 41 356 2.0 0.0 0.00 0.00 0.00 55 1.0
20200226152313 41 360 0.0 0.0 0.00 0.00 0.00 57 1.0
20200226151412 41 337 6.0 0.0 0.00 0.00 0.00 58 1.0
20200226150412 40 310 2.0 0.0 0.00 0.00 0.00 59 1.0
20200226145510 40 344 6.0 0.0 0.00 0.00 0.00 59 1.0
20200226144510 40 336 2.0 0.0 0.00 0.00 0.00 60 1.0
20200226143612 40 45 1.0 0.0 0.00 0.00 0.00 60 1.0
20200226142711 40 16 4.0 0.0 0.00 0.00 0.00 62 1.0
20200226141713 40 337 3.0 0.0 0.00 0.00 0.00 64 1.0
20200226140711 39 16 1.0 0.0 0.00 0.00 0.00 67 1.0
20200226135810 38 17 4.0 0.0 0.00 0.00 0.00 70 1.0
20200226134811 37 360 0.0 0.0 0.00 0.00 0.00 72 1.0
20200226133911 37 315 2.0 0.0 0.00 0.00 0.00 74 1.0
20200226133011 37 360 3.0 0.0 0.00 0.00 0.00 76 1.0
20200226132013 36 337 1.0 0.0 0.00 0.00 0.00 76 1.0
20200226131111 36 290 3.0 0.0 0.00 0.00 0.00 78 1.0
20200226130211 37 360 1.0 0.0 0.00 0.00 0.00 79 1.0
20200226125211 37 292 0.0 0.0 0.00 0.00 0.00 79 1.0
20200226124311 36 270 0.0 0.0 0.00 0.00 0.00 79 1.0
20200226123312 36 202 0.0 0.0 0.00 0.00 0.00 79 1.0
20200226122411 35 22 2.0 0.0 0.00 0.00 0.00 79 1.0
20200226121412 35 225 1.0 0.0 0.00 0.00 0.00 79 1.0
20200226120413 35 67 0.0 0.0 0.00 0.00 0.00 79 1.0
20200226115512 35 67 0.0 0.0 0.00 0.00 0.00 79 1.0
20200226114512 35 67 0.0 0.0 0.00 0.00 0.00 79 1.0
20200226113612 36 67 2.0 0.0 0.00 0.00 0.00 79 1.0
20200226112612 36 90 0.0 0.0 0.00 0.00 0.00 78 1.0
20200226111614 36 90 0.0 0.0 0.00 0.00 0.00 78 1.0
20200226110712 37 90 1.0 0.0 0.00 0.00 0.00 79 1.0
20200226105810 37 90 0.0 0.0 0.00 0.00 0.00 78 1.0
20200226104812 37 90 0.0 0.0 0.00 0.00 0.00 78 1.0
20200226103812 37 90 0.0 0.0 0.00 0.00 0.00 78 1.0
20200226102911 37 90 0.0 0.0 0.00 0.00 0.00 79 1.0
20200226101912 37 90 0.0 0.0 0.00 0.00 0.00 79 1.0
20200226100911 38 104 2.0 0.0 0.00 0.00 0.00 79 1.0
20200226100009 38 135 0.0 0.0 0.00 0.00 0.00 80 1.0
20200226095010 38 135 2.0 0.0 0.00 0.00 0.00 78 1.0
20200226094110 37 180 0.0 0.0 0.00 0.00 0.00 79 1.0
20200226093111 37 202 4.0 0.0 0.00 0.00 0.00 78 1.0
20200226092210 37 151 1.0 0.0 0.00 0.00 0.00 79 1.0
20200226091212 37 112 1.0 0.0 0.00 0.00 0.00 79 1.0
20200226090212 37 112 0.0 0.0 0.00 0.00 0.00 79 1.0
20200226085309 37 90 1.0 0.0 0.00 0.00 0.00 78 1.0
20200226084410 37 112 3.0 0.0 0.00 0.00 0.00 78 1.0
20200226083411 37 135 2.0 0.0 0.00 0.00 0.00 78 1.0
20200226082510 38 112 2.0 0.0 0.00 0.00 0.00 77 1.0
20200226081611 38 79 2.0 0.0 0.00 0.00 0.00 77 1.0
20200226080614 38 360 0.0 0.0 0.00 0.00 0.00 77 1.0
20200226075711 38 360 1.0 0.0 0.00 0.00 0.00 77 1.0
20200226074711 38 360 0.0 0.0 0.00 0.00 0.00 77 1.0
20200226073812 38 360 0.0 0.0 0.00 0.00 0.00 76 1.0
20200226072813 37 360 0.0 0.0 0.00 0.00 0.00 76 1.0
20200226071911 38 360 0.0 0.0 0.00 0.00 0.00 76 1.0
20200226070912 38 360 1.0 0.0 0.00 0.00 0.00 75 1.0
20200226070011 39 360 2.0 0.0 0.00 0.00 0.00 75 1.0
20200226065011 39 360 3.0 0.0 0.00 0.00 0.00 75 1.0
20200226064011 39 341 3.0 0.0 0.00 0.00 0.00 75 1.0
20200226063011 38 292 0.0 0.0 0.00 0.00 0.00 75 1.0
20200226062112 38 292 3.0 0.0 0.00 0.00 0.00 74 1.0
20200226061111 38 337 3.0 0.0 0.00 0.00 0.00 73 1.0
20200226060209 38 360 3.0 0.0 0.00 0.00 0.00 72 1.0
20200226055212 39 360 4.0 0.0 0.00 0.00 0.00 72 1.0
20200226054309 40 360 3.0 0.0 0.00 0.00 0.00 72 1.0
20200226053312 40 315 4.0 0.0 0.00 0.00 0.00 72 1.0
20200226052412 40 315 3.0 0.0 0.00 0.00 0.00 73 1.0
20200226051412 39 315 4.0 0.0 0.00 0.00 0.00 73 1.0
20200226050509 38 330 3.0 0.0 0.00 0.00 0.00 72 1.0
20200226045526 38 360 2.0 0.0 0.00 0.00 0.00 71 1.0
20200226044627 39 22 3.0 0.0 0.00 0.00 0.00 69 1.0
20200226043631 41 22 1.0 0.0 0.00 0.00 0.00 68 1.0
20200226042628 41 292 3.0 0.0 0.00 0.00 0.00 69 1.0
20200226041727 41 292 4.0 0.0 0.00 0.00 0.00 69 1.0
20200226040826 40 315 3.0 0.0 0.00 0.00 0.00 68 1.0
20200226035829 41 337 2.0 0.0 0.00 0.00 0.00 68 1.0
20200226034826 41 292 3.0 0.0 0.00 0.00 0.00 67 1.0
20200226033827 41 292 3.0 0.0 0.00 0.00 0.00 67 1.0
20200226032927 41 315 2.0 0.0 0.00 0.00 0.00 66 1.0
20200226031928 42 315 3.0 0.0 0.00 0.00 0.00 65 1.0
20200226030927 42 292 3.0 0.0 0.00 0.00 0.00 65 1.0
20200226025927 42 292 2.0 0.0 0.00 0.00 0.00 64 1.0
20200226024928 42 292 2.0 0.0 0.00 0.00 0.00 64 1.0
20200226024028 41 294 4.0 0.0 0.00 0.00 0.00 64 1.0
20200226023127 42 315 4.0 0.0 0.00 0.00 0.00 64 1.0
20200226022227 42 337 4.0 0.0 0.00 0.00 0.00 63 1.0
20200226021229 42 315 2.0 0.0 0.00 0.00 0.00 63 1.0
20200226020227 42 292 4.0 0.0 0.00 0.00 0.00 64 1.0